GW5728 Weather Reports


time (UTC)temp
C
wind
direction
speed
KPH
gust
KPH
rain 1hr
cm
rain 24hr
cm
rain mn
cm
humidity
%
barometer
mb
20260505065728 12 317 1.6 17.7 0.00 0.00 0.00 83 1057.1
20260505065228 12 158 1.6 17.7 0.00 0.00 0.00 83 1064.9
20260505064728 13 259 1.6 17.7 0.00 0.00 0.00 83 1066.2
20260505063713 13 120 0.0 17.7 0.00 0.00 0.00 83 1047.3
20260505063213 13 179 1.6 17.7 0.00 0.00 0.00 83 1045.8
20260505062713 13 270 1.6 17.7 0.00 0.00 0.00 83 1037.1
20260505061658 13 4 1.6 17.7 0.00 0.00 0.00 83 1062.1
20260505061158 13 345 1.6 17.7 0.00 0.00 0.00 83 1054.6
20260505060658 13 145 0.0 17.7 0.00 0.00 0.00 82 1051.1
20260505060158 13 189 3.2 17.7 0.00 0.00 0.00 82 1066.7
20260505055658 13 256 3.2 17.7 0.00 0.00 0.00 82 1085.6
20260505055158 13 306 1.6 17.7 0.00 0.00 0.00 82 1093.0
20260505054658 13 292 1.6 17.7 0.00 0.00 0.00 82 1094.2
20260505054158 13 308 1.6 17.7 0.00 0.00 0.00 81 1097.0
20260505053658 13 301 1.6 17.7 0.00 0.00 0.00 81 1093.1
20260505052128 13 294 1.6 17.7 0.00 0.00 0.00 79 1096.6
20260505051628 14 309 1.6 17.7 0.00 0.00 0.00 78 1098.3
20260505051128 14 318 1.6 17.7 0.00 0.00 0.00 77 1097.0
20260505050628 15 319 1.6 17.7 0.00 0.00 0.00 76 1092.7
20260505050128 15 320 3.2 17.7 0.00 0.00 0.00 75 1080.7
20260505041558 16 256 1.6 17.7 0.00 0.00 0.00 71 1077.2
20260505040544 16 286 1.6 17.7 0.00 0.00 0.00 71 1069.5
20260505040044 16 274 0.0 17.7 0.00 0.00 0.00 70 1066.7
20260505035028 17 248 0.0 17.7 0.00 0.00 0.00 68 1066.2
20260505034528 17 357 0.0 17.7 0.00 0.00 0.00 67 1056.1
20260505034029 17 265 1.6 17.7 0.00 0.00 0.00 67 1067.2
20260505033528 17 220 4.8 17.7 0.00 0.00 0.00 67 1051.1
20260505033029 17 164 1.6 17.7 0.00 0.00 0.00 66 1043.7
20260505032013 18 94 3.2 17.7 0.00 0.00 0.00 65 1049.9
20260505031513 18 185 0.0 17.7 0.00 0.00 0.00 64 1050.2
20260505031014 18 211 0.0 17.7 0.00 0.00 0.00 64 1053.6
20260505030514 18 233 3.2 17.7 0.00 0.00 0.00 63 1047.3
20260505030013 19 116 1.6 17.7 0.00 0.00 0.00 62 1031.8
20260505025514 19 112 3.2 17.7 0.00 0.00 0.00 61 1036.8
20260505023944 20 274 1.6 17.7 0.00 0.00 0.00 60 1055.9
20260505022929 20 193 3.2 17.7 0.00 0.00 0.00 58 1055.6
20260505022429 21 165 1.6 17.7 0.00 0.00 0.00 57 1055.1
20260505021414 21 227 1.6 17.7 0.00 0.00 0.00 55 1060.0
20260505020914 22 246 3.2 17.7 0.00 0.00 0.00 54 1069.2
20260505015353 23 231 1.6 17.7 0.00 0.00 0.00 51 1062.7
20260505014853 23 305 0.0 17.7 0.00 0.00 0.00 50 1062.9
20260505014353 23 235 1.6 17.7 0.00 0.00 0.00 49 1068.4
20260505013853 23 239 3.2 17.7 0.00 0.00 0.00 48 1074.9
20260505013353 24 280 1.6 17.7 0.00 0.00 0.00 48 1073.4
20260505012853 25 284 1.6 17.7 0.00 0.00 0.00 49 1067.1
20260505012353 25 263 1.6 17.7 0.00 0.00 0.00 49 1060.5
20260505011853 25 146 3.2 17.7 0.00 0.00 0.00 47 1050.0
20260505011353 25 47 1.6 17.7 0.00 0.00 0.00 47 1061.1
20260505010338 25 294 1.6 17.7 0.00 0.00 0.00 49 1076.6
20260505005838 25 7 1.6 17.7 0.00 0.00 0.00 48 1061.8
20260505005338 25 290 1.6 17.7 0.00 0.00 0.00 49 1069.0
20260505004838 25 207 1.6 17.7 0.00 0.00 0.00 49 1060.8
20260505003823 26 168 1.6 17.7 0.00 0.00 0.00 51 1054.9
20260505003323 26 133 1.6 17.7 0.00 0.00 0.00 52 1059.7
20260505002308 26 304 1.6 17.7 0.00 0.00 0.00 54 1081.3
20260505001808 25 298 1.6 17.7 0.00 0.00 0.00 54 1085.5
20260505001308 25 279 1.6 17.7 0.00 0.00 0.00 54 1083.2
20260505000808 25 294 1.6 17.7 0.00 0.00 0.00 54 1075.5
20260505000308 26 288 3.2 17.7 0.00 0.00 0.00 53 1075.3
20260504235808 26 130 0.0 17.7 0.00 0.00 0.00 53 1071.6
20260504235308 26 315 1.6 17.7 0.00 0.00 0.00 52 1085.8
20260504234808 26 275 1.6 17.7 0.00 0.00 0.00 55 1078.9
20260504234308 26 324 1.6 17.7 0.00 0.00 0.00 56 1078.4
20260504233808 26 243 3.2 17.7 0.00 0.00 0.00 52 1070.1
20260504233308 26 267 1.6 17.7 0.00 0.00 0.00 54 1076.8
20260504232808 26 299 1.6 17.7 0.00 0.00 0.00 52 1075.7
20260504232308 26 295 1.6 17.7 0.00 0.00 0.00 53 1064.9
20260504231808 26 353 0.0 17.7 0.00 0.00 0.00 55 1072.8
20260504231308 26 0 1.6 17.7 0.00 0.00 0.00 55 1069.8
20260504230808 25 329 1.6 17.7 0.00 0.00 0.00 56 1086.7
20260504230308 25 326 3.2 17.7 0.00 0.00 0.00 54 1088.5
20260504225808 26 352 1.6 17.7 0.00 0.00 0.00 56 1075.9
20260504225308 25 333 1.6 17.7 0.00 0.00 0.00 55 1080.9
20260504224808 26 298 3.2 17.7 0.00 0.00 0.00 53 1078.4
20260504224308 26 274 1.6 17.7 0.00 0.00 0.00 52 1080.4
20260504223808 25 280 3.2 17.7 0.00 0.00 0.00 57 1082.1
20260504223308 25 287 3.2 17.7 0.00 0.00 0.00 55 1077.4
20260504221738 25 282 1.6 17.7 0.00 0.00 0.00 55 1072.4
20260504221238 25 292 1.6 17.7 0.00 0.00 0.00 52 1061.9
20260504220738 25 52 1.6 17.7 0.00 0.00 0.00 54 1052.7
20260504220238 25 283 0.0 17.7 0.00 0.00 0.00 56 1071.0
20260504215737 25 270 1.6 17.7 0.00 0.00 0.00 56 1067.8
20260504214722 25 339 0.0 17.7 0.00 0.00 0.00 55 1069.2
20260504214222 25 352 1.6 17.7 0.00 0.00 0.00 55 1080.3
20260504213722 25 301 1.6 17.7 0.00 0.00 0.00 56 1084.9
20260504213222 25 276 1.6 17.7 0.00 0.00 0.00 57 1082.2
20260504212723 24 299 1.6 17.7 0.00 0.00 0.00 55 1084.1
20260504212222 25 315 3.2 17.7 0.00 0.00 0.00 56 1080.1
20260504211722 25 316 1.6 17.7 0.00 0.00 0.00 59 1077.1
20260504211222 24 325 1.6 17.7 0.00 0.00 0.00 58 1070.8
20260504210722 24 311 1.6 17.7 0.00 0.00 0.00 56 1070.7
20260504210221 24 193 3.2 17.7 0.00 0.00 0.00 54 1067.5
20260504205721 24 314 1.6 17.7 0.00 0.00 0.00 57 1069.8
20260504205221 24 326 1.6 17.7 0.00 0.00 0.00 56 1067.4
20260504204721 24 243 1.6 17.7 0.00 0.00 0.00 59 1059.7
20260504204222 24 269 1.6 17.7 0.00 0.00 0.00 56 1058.9
20260504203721 23 106 0.0 17.7 0.00 0.00 0.00 58 1058.8
20260504203221 24 266 3.2 17.7 0.00 0.00 0.00 56 1069.8
20260504202721 24 314 0.0 17.7 0.00 0.00 0.00 59 1066.3
20260504202222 23 117 1.6 17.7 0.00 0.00 0.00 57 1047.6
20260504201722 23 298 1.6 17.7 0.00 0.00 0.00 59 1060.1
20260504201221 23 155 1.6 17.7 0.00 0.00 0.00 57 1064.0
20260504200721 23 113 1.6 17.7 0.00 0.00 0.00 59 1061.4
20260504200222 23 264 0.0 17.7 0.00 0.00 0.00 57 1053.1
20260504195721 23 203 1.6 17.7 0.00 0.00 0.00 61 1056.2
20260504194706 23 317 1.6 17.7 0.00 0.00 0.00 56 1055.4
20260504194206 23 245 1.6 17.7 0.00 0.00 0.00 57 1046.1
20260504193151 22 126 1.6 17.7 0.00 0.00 0.00 58 1054.3
20260504192136 22 171 1.6 17.7 0.00 0.00 0.00 59 1049.7
20260504191636 22 276 1.6 17.7 0.00 0.00 0.00 56 1068.1
20260504191137 22 223 1.6 17.7 0.00 0.00 0.00 59 1057.9
20260504190637 22 226 1.6 17.7 0.00 0.00 0.00 59 1068.7
20260504185622 22 334 1.6 17.7 0.00 0.00 0.00 59 1083.9
20260504185122 22 236 1.6 17.7 0.00 0.00 0.00 58 1067.6
20260504184622 22 277 1.6 17.7 0.00 0.00 0.00 62 1077.9
20260504184122 22 270 1.6 17.7 0.00 0.00 0.00 59 1072.5
20260504183622 22 279 1.6 17.7 0.00 0.00 0.00 59 1071.4
20260504183122 21 229 0.0 17.7 0.00 0.00 0.00 66 1064.8
20260504182107 21 244 1.6 17.7 0.00 0.00 0.00 64 1078.9
20260504181607 21 250 0.0 17.7 0.00 0.00 0.00 61 1079.7
20260504181107 21 265 1.6 17.7 0.00 0.00 0.00 63 1078.5
20260504180607 21 224 1.6 17.7 0.00 0.00 0.00 65 1071.3
20260504180107 21 300 1.6 17.7 0.00 0.00 0.00 64 1083.9
20260504175052 20 320 1.6 17.7 0.00 0.00 0.00 65 1064.2
20260504174552 21 121 1.6 17.7 0.00 0.00 0.00 61 1047.3
20260504174052 21 224 1.6 17.7 0.00 0.00 0.00 62 1058.1
20260504173552 20 212 1.6 17.7 0.00 0.00 0.00 64 1042.6
20260504173052 20 110 1.6 17.7 0.00 0.00 0.00 65 1044.3
20260504172552 20 121 1.6 17.7 0.00 0.00 0.00 65 1051.2
20260504172052 20 276 0.0 17.7 0.00 0.00 0.00 64 1070.5
20260504171552 20 322 1.6 17.7 0.00 0.00 0.00 64 1063.5
20260504170537 20 108 0.0 17.7 0.00 0.00 0.00 67 1042.3
20260504150952 17 128 0.0 17.7 0.00 0.00 0.00 73 1038.9
20260504150452 17 168 0.0 17.7 0.00 0.00 0.00 74 1049.6
20260504140937 11 235 0.0 17.7 0.00 0.00 0.00 92 1069.1
20260504130323 9 185 0.0 17.7 0.00 0.00 0.00 92 1048.3
20260504120252 10 185 0.0 17.7 0.00 0.00 0.00 91 1048.3
20260504110237 11 185 0.0 17.7 0.00 0.00 0.00 90 1047.8
20260504100222 11 180 0.0 17.7 0.00 0.00 0.00 88 1046.2
20260504090121 12 180 0.0 17.7 0.00 0.00 0.00 85 1046.2
20260504081606 13 180 0.0 17.7 0.00 0.00 0.00 83 1046.3
20260504080551 13 180 0.0 17.7 0.00 0.00 0.00 82 1046.4